Tracking 20942 objects as of 11-Jul-2020
HD Live streaming from Space Station
objects crossing your sky now

THOR ABLESTAR DEB

Track THOR ABLESTAR DEB now!
10-day predictions


NORAD ID: 516
Int'l Code: 1961-015FT
Perigee: 865.0 km
Apogee: 997.5 km
Inclination: 66.0 °
Period: 103.5 minutes
Semi major axis: 7302 km
RCS: 0.1377 m2 (medium)
Launch date: June 29, 1961
Source: United States (US)
Launch site: AIR FORCE EASTERN TEST RANGE (AFETR)

Note: This is SATELLITE DEBRIS
aabbcc
Your satellite tracking list
Your tracking list is empty




NASA's NSSDC Master Catalog

Two Line Element Set (TLE):
1   516U 61015FT  20192.50048381  .00000019  00000-0  78284-4 0  9991
2   516  65.9935 222.9556 0090722 232.5919 126.6871 13.91302099987218
Source of the keplerian elements: AFSPC